Location: Laas
(43.4693°N, 0.3073°E)
Time: 15:41:30
(UTC+00:00)

Lacrosse 5 - Pass Details

Date: 25 October 2020
Orbit: 716 x 723 km, 57.0° (Epoch: 06 November)

Event Time Altitude Azimuth Distance (km) Brightness Sun altitude
Rises 18:17:02 0° 289° (WNW) 3,120 6.5 -14.7°
Reaches altitude 10° 18:20:09 10° 309° (NW) 2,201 5.1 -15.3°
Maximum altitude 18:23:37 18° 352° (N) 1,714 3.9 -15.9°
Enters shadow 18:26:52 11° 34° (NNE) 2,150 4.0 -16.5°
